When you browse on this site, cookies collect data to enhance your experience and personalize the content and advertising you see.
Visit our Privacy Policy to learn more. By continuing to use the site, you agree to this use of cookies and data.
  • Em Portugal
  • Lista de países
  • Para 7 dias
  • Temperatura da água
  • Mapas de satélite
  • Mapa do tempo
  • Widgets de tempo
  • user-avatar
    Iniciar Sessão

    Previsão horária em Jazd

    Hoje, 23 Março, Sábado

    Tempo Temperatura Precipitação Vento Pressão Humidade
    00:00 +5°C° 0 mm 1 m/s 557 mmHg 40%
    01:00 +5°C° 0 mm 1 m/s 557 mmHg 43%
    02:00 +4°C° 0 mm 1 m/s 557 mmHg 45%
    03:00 +4°C° 0 mm 1 m/s 557 mmHg 46%
    04:00 +3°C° 0 mm 1 m/s 556 mmHg 48%
    05:00 +3°C° 0 mm 1 m/s 557 mmHg 48%
    06:00 +3°C° 0 mm 1 m/s 557 mmHg 47%
    07:00 +3°C° 0 mm 1 m/s 557 mmHg 47%
    08:00 +4°C° 0 mm 1 m/s 558 mmHg 42%
    09:00 +6°C° 0 mm 1 m/s 558 mmHg 37%
    10:00 +6°C° 0 mm 2 m/s 559 mmHg 32%
    11:00 +7°C° 0 mm 2 m/s 559 mmHg 29%
    12:00 +8°C° 0 mm 2 m/s 559 mmHg 26%
    13:00 +9°C° 0 mm 2 m/s 559 mmHg 22%
    14:00 +9°C° 0 mm 2 m/s 559 mmHg 20%
    15:00 +10°C° 0 mm 2 m/s 559 mmHg 18%
    16:00 +10°C° 0 mm 2 m/s 558 mmHg 16%
    17:00 +10°C° 0 mm 2 m/s 558 mmHg 18%
    18:00 +10°C° 0 mm 2 m/s 558 mmHg 19%
    19:00 +9°C° 0 mm 2 m/s 558 mmHg 20%
    20:00 +10°C° 0 mm 1 m/s 558 mmHg 23%
    21:00 +9°C° 0 mm 1 m/s 558 mmHg 26%
    22:00 +9°C° 0 mm 1 m/s 558 mmHg 28%
    23:00 +8°C° 0 mm 1 m/s 558 mmHg 29%

    Amanhã, 24 Março, Domingo

    Tempo Temperatura Precipitação Vento Pressão Humidade
    00:00 +6°C° 0 mm 2 m/s 557 mmHg 30%
    01:00 +6°C° 0 mm 2 m/s 557 mmHg 30%
    02:00 +5°C° 0 mm 2 m/s 557 mmHg 33%
    03:00 +6°C° 0 mm 1 m/s 556 mmHg 35%
    04:00 +5°C° 0 mm 1 m/s 556 mmHg 38%
    05:00 +5°C° 0 mm 1 m/s 556 mmHg 38%
    06:00 +5°C° 0 mm 1 m/s 556 mmHg 38%
    07:00 +5°C° 0 mm 1 m/s 556 mmHg 38%
    08:00 +5°C° 0 mm 2 m/s 557 mmHg 35%
    09:00 +7°C° 0 mm 2 m/s 558 mmHg 33%
    10:00 +8°C° 0 mm 3 m/s 559 mmHg 30%
    11:00 +9°C° 0 mm 3 m/s 559 mmHg 29%
    12:00 +10°C° 0 mm 4 m/s 559 mmHg 28%
    13:00 +10°C° 0 mm 5 m/s 559 mmHg 27%
    14:00 +12°C° 0 mm 5 m/s 558 mmHg 25%
    15:00 +12°C° 0 mm 5 m/s 558 mmHg 24%
    16:00 +13°C° 0 mm 5 m/s 557 mmHg 22%
    17:00 +12°C° 0 mm 5 m/s 557 mmHg 25%
    18:00 +12°C° 0 mm 4 m/s 557 mmHg 28%
    19:00 +11°C° 0 mm 4 m/s 557 mmHg 31%
    20:00 +11°C° 0 mm 4 m/s 557 mmHg 34%
    21:00 +10°C° 0 mm 4 m/s 557 mmHg 37%
    22:00 +8°C° 0 mm 4 m/s 557 mmHg 41%
    23:00 +8°C° 0 mm 4 m/s 556 mmHg 45%

    Depois de amanhã, 25 Março, Segunda-feira

    Tempo Temperatura Precipitação Vento Pressão Humidade
    00:00 +7°C° 0 mm 4 m/s 556 mmHg 48%
    01:00 +7°C° 0 mm 4 m/s 556 mmHg 52%
    02:00 +7°C° 0 mm 5 m/s 555 mmHg 56%
    03:00 +6°C° 0 mm 5 m/s 555 mmHg 60%
    04:00 +6°C° 0 mm 5 m/s 555 mmHg 64%
    05:00 +6°C° 0 mm 5 m/s 555 mmHg 64%
    06:00 +6°C° 0 mm 5 m/s 555 mmHg 63%
    07:00 +6°C° 0 mm 5 m/s 555 mmHg 62%
    08:00 +7°C° 0 mm 6 m/s 556 mmHg 55%
    09:00 +8°C° 0 mm 7 m/s 557 mmHg 49%
    10:00 +9°C° 0 mm 8 m/s 558 mmHg 43%
    11:00 +10°C° 0.2 mm 8 m/s 557 mmHg 46%
    12:00 +10°C° 0.2 mm 8 m/s 557 mmHg 49%
    13:00 +10°C° 0.2 mm 8 m/s 557 mmHg 53%
    14:00 +11°C° 0.3 mm 7 m/s 557 mmHg 51%
    15:00 +11°C° 0.3 mm 7 m/s 556 mmHg 50%
    16:00 +11°C° 0.3 mm 6 m/s 556 mmHg 48%
    17:00 +10°C° 0.8 mm 7 m/s 556 mmHg 54%
    18:00 +9°C° 0.8 mm 7 m/s 556 mmHg 60%
    19:00 +8°C° 0.8 mm 7 m/s 556 mmHg 66%
    20:00 +8°C° 1 mm 7 m/s 556 mmHg 68%
    21:00 +8°C° 1 mm 7 m/s 556 mmHg 69%
    22:00 +8°C° 1 mm 7 m/s 557 mmHg 71%
    23:00 +8°C° 0.1 mm 7 m/s 556 mmHg 71%

    26 Março, Terça-feira

    Tempo Temperatura Precipitação Vento Pressão Humidade
    00:00 +7°C° 0.1 mm 8 m/s 556 mmHg 71%
    01:00 +6°C° 0.1 mm 8 m/s 555 mmHg 71%
    02:00 +6°C° 0.8 mm 8 m/s 555 mmHg 73%
    03:00 +6°C° 0.8 mm 8 m/s 555 mmHg 76%
    04:00 +5°C° 0.8 mm 8 m/s 555 mmHg 79%
    05:00 +5°C° 0.6 mm 7 m/s 556 mmHg 79%
    06:00 +5°C° 0.6 mm 6 m/s 556 mmHg 79%
    07:00 +5°C° 0.6 mm 6 m/s 557 mmHg 78%
    08:00 +5°C° 0.7 mm 6 m/s 557 mmHg 76%
    09:00 +5°C° 0.7 mm 6 m/s 557 mmHg 73%
    10:00 +7°C° 0.7 mm 5 m/s 557 mmHg 71%
    11:00 +6°C° 0.5 mm 7 m/s 557 mmHg 68%
    12:00 +7°C° 0.5 mm 8 m/s 557 mmHg 65%
    13:00 +8°C° 0.5 mm 10 m/s 557 mmHg 62%
    14:00 +8°C° 0.9 mm 9 m/s 557 mmHg 63%
    15:00 +9°C° 0.9 mm 8 m/s 556 mmHg 63%
    16:00 +9°C° 0.9 mm 7 m/s 555 mmHg 64%
    17:00 +9°C° 1.9 mm 7 m/s 556 mmHg 65%
    18:00 +9°C° 1.9 mm 6 m/s 556 mmHg 66%
    19:00 +8°C° 1.9 mm 6 m/s 556 mmHg 66%
    20:00 +8°C° 1 mm 6 m/s 556 mmHg 69%
    21:00 +7°C° 1 mm 6 m/s 556 mmHg 71%
    22:00 +7°C° 1 mm 6 m/s 557 mmHg 74%
    23:00 +5°C° 1 mm 6 m/s 556 mmHg 75%

    27 Março, Quarta-feira

    Tempo Temperatura Precipitação Vento Pressão Humidade
    00:00 +6°C° 1 mm 5 m/s 556 mmHg 75%
    01:00 +5°C° 1 mm 5 m/s 556 mmHg 76%
    02:00 +5°C° 0.2 mm 5 m/s 556 mmHg 75%
    03:00 +5°C° 0.2 mm 5 m/s 556 mmHg 74%
    04:00 +4°C° 0.2 mm 4 m/s 556 mmHg 73%
    05:00 +4°C° 0 mm 4 m/s 556 mmHg 70%
    06:00 +4°C° 0 mm 3 m/s 556 mmHg 67%
    07:00 +3°C° 0 mm 3 m/s 557 mmHg 64%
    08:00 +5°C° 0 mm 3 m/s 557 mmHg 53%
    09:00 +7°C° 0 mm 3 m/s 558 mmHg 42%
    10:00 +8°C° 0 mm 3 m/s 559 mmHg 30%
    11:00 +9°C° 0 mm 3 m/s 559 mmHg 27%
    12:00 +10°C° 0 mm 3 m/s 560 mmHg 23%
    13:00 +11°C° 0 mm 3 m/s 560 mmHg 20%
    14:00 +11°C° 0 mm 3 m/s 560 mmHg 19%
    15:00 +12°C° 0 mm 3 m/s 560 mmHg 18%
    16:00 +12°C° 0 mm 3 m/s 560 mmHg 16%
    17:00 +13°C° 0 mm 2 m/s 560 mmHg 20%
    18:00 +12°C° 0 mm 2 m/s 560 mmHg 23%
    19:00 +11°C° 0 mm 1 m/s 560 mmHg 26%
    20:00 +11°C° 0 mm 1 m/s 560 mmHg 27%
    21:00 +10°C° 0 mm 1 m/s 560 mmHg 28%
    22:00 +8°C° 0 mm 2 m/s 560 mmHg 29%
    23:00 +8°C° 0 mm 2 m/s 560 mmHg 32%

    28 Março, Quinta-feira

    Tempo Temperatura Precipitação Vento Pressão Humidade
    00:00 +7°C° 0 mm 2 m/s 559 mmHg 35%
    01:00 +7°C° 0 mm 2 m/s 559 mmHg 39%
    02:00 +6°C° 0 mm 2 m/s 559 mmHg 41%
    03:00 +6°C° 0 mm 2 m/s 558 mmHg 43%
    04:00 +5°C° 0 mm 2 m/s 558 mmHg 46%
    05:00 +5°C° 0 mm 2 m/s 558 mmHg 48%
    06:00 +5°C° 0 mm 2 m/s 559 mmHg 51%
    07:00 +4°C° 0 mm 2 m/s 559 mmHg 53%
    08:00 +6°C° 0 mm 2 m/s 560 mmHg 47%
    09:00 +7°C° 0 mm 2 m/s 561 mmHg 40%
    10:00 +8°C° 0 mm 2 m/s 561 mmHg 34%
    11:00 +9°C° 0 mm 2 m/s 561 mmHg 30%
    12:00 +10°C° 0 mm 2 m/s 561 mmHg 26%
    13:00 +11°C° 0 mm 3 m/s 561 mmHg 22%
    14:00 +12°C° 0 mm 3 m/s 561 mmHg 20%
    15:00 +13°C° 0 mm 2 m/s 561 mmHg 18%
    16:00 +14°C° 0 mm 2 m/s 561 mmHg 16%
    17:00 +14°C° 0 mm 2 m/s 561 mmHg 19%
    18:00 +13°C° 0 mm 1 m/s 561 mmHg 22%
    19:00 +13°C° 0 mm 1 m/s 561 mmHg 24%
    20:00 +12°C° 0 mm 1 m/s 561 mmHg 25%
    21:00 +12°C° 0 mm 2 m/s 561 mmHg 26%
    22:00 +10°C° 0 mm 2 m/s 560 mmHg 27%
    23:00 +10°C° 0 mm 2 m/s 560 mmHg 28%
    Mostrar mais